User: anonymous   Login
Location: Ab? ar R?sh Ba?r?
(24.1861°N, 32.8847°E)
Time: 09:04:40
(UTC+00:00)
Language:

Cosmos 1459 Rocket - Orbit

View from above orbital plane
View from above orbital plane
View from above satellite
View from above satellite

Ground track
Ground track

The orbit data is extracted from the following two-line orbital elements,

1 14059U 83042B   22019.40617357  .00000106  00000-0  88624-4 0  9992
2 14059  82.9707 256.8629 0041493 234.9373 124.7891 13.78757967946599
Epoch (UTC): 19 January 2022 09:44:53
Eccentricity: 0.0041493
inclination: 82.9707°
perigee height: 938 km
apogee height: 999 km
right ascension of ascending node: 256.8629°
argument of perigee: 234.9373°
revolutions per day: 13.78757967
mean anomaly at epoch: 124.7891°
orbit number at epoch: 94659

The dashed part of the orbit path shows where the satellite is in the earth's shadow,  

DLR